Regional Weather Roundup
Issued by NWS

Home | Current Version | Previous Version | Graphics & Text | Print | Product List | Glossary On
Versions: 1 2 3 4 5 6 7 8 9 10 11 12 13 14 15 16 17 18 19 20 21 22 23 24 25 26 27 28
000
ASUS45 KTFX 271710
RWRMT
MONTANA REGIONAL WEATHER ROUNDUP
NATIONAL WEATHER SERVICE GREAT FALLS MT
1100 AM MDT MON MAR 27 2017

NOTE: "FAIR" INDICATES FEW OR NO CLOUDS BELOW 12000 FEET WITH NO
SIGNIFICANT WEATHER AND/OR OBSTRUCTIONS TO VISIBILITY.

MTZ001>007-043-271800-
WEST OF THE DIVIDE

CITY           SKY/WX    TMP DP  RH WIND       PRES   REMARKS
KALISPELL      CLOUDY    41  39  93 S5        29.90R
MISSOULA       LGT RAIN  40  36  86 CALM      29.94R
BUTTE          CLOUDY    42  28  57 VRB3      29.86S
MULLAN PASS    SNOW      29  29 100 CALM      29.88R VSB 1/4
ANACONDA         N/A     43  28  56 N3        29.87S
DEER LODGE       N/A     41  36  81 N6        29.91R
EUREKA           N/A     43  37  81 W6        29.90R
HAMILTON         N/A     41  36  81 SE6       29.92R
PLAINS           N/A     43  38  82 CALM      29.94R
RONAN            N/A     42  39  89 SE5       29.96R
$$

MTZ008-052>055-271800-
SOUTHWEST MONTANA

CITY           SKY/WX    TMP DP  RH WIND       PRES   REMARKS
BOZEMAN        SUNNY     50  33  52 N7        29.85F
DILLON         CLOUDY    44  28  53 SW6       29.86R
W YELLOWSTONE  CLOUDY    34  32  93 SW10      29.90S WCI  26
ENNIS          CLOUDY    48  28  46 VRB3      29.89F
THREE FORKS      N/A     49 -35   2 CALM      29.87S
$$

MTZ009-010-012-014-046-048-049-054-271800-
EAST SLOPES AND CENTRAL MONTANA

CITY           SKY/WX    TMP DP  RH WIND       PRES   REMARKS
CUT BANK       CLOUDY    48  32  53 W7        29.82R
GREAT FALLS    SUNNY     49  27  42 SW12      29.83R
HELENA         CLOUDY    48  35  60 E5        29.86R
AUGUSTA        PTSUNNY   46  27  46 S6        29.83R
BOWMANS CRNR     N/A     45  27  50 S13       29.82R
CHOTEAU          N/A     50  27  40 SW6       29.84R
CONRAD           N/A     50  35  56 S1        29.86R
FAIRFIELD        N/A     49  25  38 W6        29.82R
POWER            N/A     48  28  45 CALM      29.82R
RAYNESFORD       N/A     49  27  43 W9        29.84R
$$

MTZ011-013-016-021-045-047-050-051-271800-
NORTH CENTRAL MONTANA

CITY           SKY/WX    TMP DP  RH WIND       PRES   REMARKS
HAVRE          MOSUNNY   50  29  44 E3        29.83S
LEWISTOWN      SUNNY     48  29  47 CALM      29.84R
N BAR RANCH      N/A     48  27  43 CALM      29.86R
CHINOOK          N/A     48  27  43 E10       29.84R
DENTON           N/A     49  31  51 SW7       29.81R
GEYSER           N/A     49  29  46 W17       29.83S
GRASS RANGE      N/A     50  30  46 E5        29.81S
STANFORD         N/A     46  29  50 CALM      29.83R
WINIFRED         N/A     49  30  48 W6        29.83S
$$

MTZ017>020-022>027-061-062-271800-
NORTHEAST MONTANA

CITY           SKY/WX    TMP DP  RH WIND       PRES   REMARKS
GLASGOW        CLOUDY    48  29  47 S9        29.87R
JORDAN           N/A     51  32  48 NE13      29.83F
SIDNEY         CLOUDY    49  34  56 NE5       29.89F
WOLF POINT     CLOUDY    50  30  46 E16       29.88S
MALTA          PTSUNNY   45  37  76 NE9       29.86F
PLENTYWOOD       N/A     46  32  57 SW5       29.92R
POPLAR           N/A     45  30  57 NE13      29.89F
SCOBEY           N/A     43  29  58 CALM      29.89S
$$

MTZ028>42-056>058-271800-
SOUTHCENTRAL AND SOUTHEAST MONTANA

CITY           SKY/WX    TMP DP  RH WIND       PRES   REMARKS
BAKER          SUNNY     55  33  43 SE14      29.88S
BILLINGS       MOSUNNY   53  30  41 CALM      29.85S
LIVINGSTON     PTSUNNY   48  31  51 MISG      29.84F
MILES CITY     CLOUDY    51  37  58 SE12      29.84F
BIG TIMBER     PTSUNNY   50  30  46 SW13      29.86S
EKALAKA          N/A     52  32  46 E17       29.86S
FORSYTH          N/A     54  36  50 E3        29.83S
HARLOWTON      PTSUNNY   49  30  47 W18       29.84R
LAUREL           N/A     52  29  41 E1        29.85S
ROUNDUP          N/A     54  30  40 NW6       29.77R
$$

REGIONAL REPORTS...DAKOTAS

CITY           SKY/WX    TMP DP  RH WIND       PRES   REMARKS
WILLISTON      CLOUDY    51  31  46 CALM      29.91S
MINOT          CLOUDY    41  35  79 NW6       29.94R
DICKINSON      SUNNY     53  34  48 S9        29.88F
BEACH            N/A    N/A N/A N/A MISG        N/A
TIOGA            N/A     48  34  57 E9        29.93R
WATFORD CITY     N/A     50  34  53 NE8       29.92S
BISMARCK       SUNNY     55  39  54 VRB3      29.93F
GRAND FORKS    CLOUDY    38  38 100 VRB3      30.01S FOG
FARGO          SUNNY     48  41  76 N3        29.99F
BUFFALO SD       N/A     55  35  47 SE14      29.82F
RAPID CITY     PTSUNNY   42  39  89 SE9       29.89F
$$

REGIONAL REPORTS...WYOMING/IDAHO/WASHINGTON

CITY           SKY/WX    TMP DP  RH WIND       PRES   REMARKS
GILLETTE       SUNNY     50  35  56 S7        29.84F
SHERIDAN       SUNNY     55  36  48 N5        29.84S
BUFFALO WY     SUNNY     55  32  41 VRB5      29.85R
CODY           CLOUDY    49  27  42 E7        29.86S
YELLOWSTONE LA   N/A     33  29  85 VRB3      29.91S
IDAHO FALLS    LGT RAIN  42  39  89 SW9       29.91R
SALMON         CLOUDY    45  32  61 NW3       29.88S
BOISE          PTSUNNY   45  39  79 W13       30.00R
SPOKANE        PTSUNNY   42  38  85 SW17      29.96R
$$

REGIONAL REPORTS...ALBERTA

CITY           SKY/WX    TMP DP  RH WIND       PRES   REMARKS
EDMONTON       CLOUDY    34  30  86 E10       29.82S WCI  26
CALGARY        MOSUNNY   48  21  34 CALM      29.78S
LETHBRIDGE     PTSUNNY   52  28  40 W10G20    29.80S
MEDICINE HAT   CLOUDY    48  32  53 W7        29.82S
WATERTON GATE    N/A     45  28  53 SW12        N/A
CARDSTON         N/A     46  28  49 SW3         N/A
MILK RIVER       N/A     46  32  57 W6          N/A
$$

REGIONAL REPORTS...SASKATCHEWAN

CITY           SKY/WX    TMP DP  RH WIND       PRES   REMARKS
SWIFT CURRENT  MOSUNNY   36  34  93 E8        29.88S WCI  29
REGINA         CLOUDY    30  30 100 E5        29.97R FOG
CYPRESS HILLS    N/A     45  19  36 SE6         N/A
VAL MARIE        N/A     50  23  34 SE7         N/A
ROCKGLEN         N/A     46  23  39 E3          N/A
ASSINIBOIA       N/A     32  30  93 SE8         N/A  WCI  25
$$




USA.gov is the U.S. government's official web portal to all federal, state and local government web resources and services.